Regional Weather Roundup
Issued by NWS

Home | Current Version | Previous Version | Text Only | Print | Product List | Glossary On
Versions: 1 2 3 4 5 6 7 8 9 10 11 12 13 14 15 16 17 18 19 20 21 22 23 24 25 26 27 28 29 30 31 32 33 34 35 36 37 38 39 40 41 42 43 44 45 46 47 48 49 50
483
ASUS43 KFSD 271110
RWRSD

WEATHER ROUNDUP FOR SOUTH DAKOTA
NATIONAL WEATHER SERVICE SIOUX FALLS SD
600 AM CDT WED JUL 27 2016

NOTE: "FAIR" INDICATES FEW OR NO CLOUDS BELOW 12,000 FEET WITH NO
SIGNIFICANT WEATHER AND/OR OBSTRUCTIONS TO VISIBILITY.


SDZ001>005-009-010-012>017-271200-
NORTHWEST AND NORTH CENTRAL SOUTH DAKOTA

CITY           SKY/WX    TMP DP  RH WIND       PRES   REMARKS
BUFFALO          N/A     60  59  96 NE8       30.05F
FAITH            N/A     61  60  97 N3        30.09R
MOBRIDGE       CLOUDY    68  63  84 NE6       30.03R
$$

SDZ012>016-024>037-041>051-057-063-072>074-271200-
SOUTHWEST AND SOUTH CENTRAL SOUTH DAKOTA

CITY           SKY/WX    TMP DP  RH WIND       PRES   REMARKS
RAPID CTY ARPT PTCLDY    62  60  93 N5        30.12R
PIERRE         CLEAR     62  60  93 N5        30.00R
CUSTER         CLOUDY    58  54  86 NW8       30.23F
ELLSWORTH AFB  CLOUDY    62  62 100 NW8       30.11R
PHILIP         CLOUDY    67  64  90 CALM      30.06R
PINE RIDGE     CLOUDY    62  59  90 NE7       30.08F
WINNER         FAIR      62  58  86 SW7       30.03R
$$

SDZ004>011-016>023-039-040-271200-
NORTHEAST SOUTH DAKOTA

CITY           SKY/WX    TMP DP  RH WIND       PRES   REMARKS
ABERDEEN       CLOUDY    66  64  93 N8        30.00R
WATERTOWN      CLOUDY    66  63  90 NE5       29.98R
BROOKINGS      CLOUDY    67  65  93 CALM        N/A
SISSETON         N/A     66  65  96 N8        29.96R
$$

SDZ017-020-022-023-036>040-048>070-271200-
SOUTHEAST SOUTH DAKOTA

CITY           SKY/WX    TMP DP  RH WIND       PRES   REMARKS
SIOUX FALLS    MOCLDY    70  61  73 W3        29.95R
HURON          CLOUDY    66  64  93 NW8       29.97R
CHAMBERLAIN    PTCLDY    66  62  86 NW8       30.00R
MITCHELL       CLOUDY    68  61  78 NW10      29.98R
YANKTON        CLOUDY    66  61  82 SE8       29.96R
$$

ABBREVIATIONS USED IN REMARKS
   TC - TEMPERATURE IN CELSIUS
  WCI - WIND CHILL INDEX
   HX - HEAT INDEX
  VSB - VISIBILITY





USA.gov is the U.S. government's official web portal to all federal, state and local government web resources and services.